Location: Delettes
(50.6178°N, 2.2123°E)
Time: 14:16:48
(UTC+00:00)

STARLINK-1029 - Pass Details

Date: 27 February 2020
Orbit: 382 x 390 km, 53.0° (Epoch: 28 March)

Event Time Altitude Azimuth Distance (km) Brightness Sun altitude
Rises 19:24:59 0° 280° (W) 2,282 8.5 -19.2°
Reaches altitude 10° 19:27:04 10° 285° (WNW) 1,428 7.0 -19.6°
Enters shadow 19:30:07 53° 356° (N) 487 3.4 -20.0°
